[[{"header":{"parameterUnit":"m.s-1","parameterCategory":1,"la1":30.2992,"la2":30.254,"lo1":-89.0895,"lo2":-89.0443,"dy":0.0025,"dx":0.0025,"nx":19,"ny":19,"refTime":"2026-05-22T21:00:00:Z","depth":0,"parameterNumber":2,"parameterNumberName":"U-component_of_WINDS"},"data":[0,0,0,-1.0122,-1.0124,-1.0225,-1.0226,-1.0335,-1.0335,0,0,0,0,0,0,0,0,0,0,0,-1.0078,-1.0078,-1.0122,-1.0124,-1.0225,-1.0226,-1.0334,-1.0335,0,0,0,0,0,0,0,0,0,0,0,-1.0078,-1.0078,-1.0078,-1.0124,-1.0225,-1.0226,-1.0334,-1.0266,0,0,0,0,0,0,0,0,0,0,-1.0171,-1.0116,-1.0078,-1.0078,-1.0125,-1.0225,-1.0226,-1.0263,-1.027,-1.0279,0,-1.0282,0,-1.031,-1.0341,-1.0341,0,0,0,-1.0135,-1.011,-1.015,-1.0078,-1.0126,-1.0225,-1.0183,-1.0267,-1.0275,-1.0289,-1.0284,-1.0289,-1.0312,-1.0342,-1.0342,-1.0353,-1.0353,0,0,-1.013,-1.0089,-1.0144,-1.0154,-1.0135,-1.0179,-1.0186,-1.0272,-1.0265,-1.0284,-1.0291,-1.0314,-1.0342,-1.0343,-1.0354,-1.0353,0,0,0,-1.0106,-1.0084,-1.0123,-1.0149,-1.0168,-1.0182,-1.0189,-1.0261,-1.0277,-1.0293,-1.0315,-1.0343,-1.0344,-1.0354,-1.0354,-1.0289,0,0,0,-1.0103,-1.0071,-1.012,-1.0096,-1.0166,-1.0216,-1.0176,-1.0271,-1.0282,-1.0314,-1.0343,-1.0345,-1.0355,-1.0354,-1.0292,-1.0265,0,0,0,-1.0076,-1.0068,-1.0077,-1.0093,-1.0135,-1.0215,-1.0237,-1.0274,-1.0295,-1.0342,-1.0345,-1.0355,-1.0354,-1.0294,-1.027,-1.0255,0,0,0,-1.0036,-1.0019,-1.0075,-1.0066,-1.0134,-1.0174,-1.0237,-1.0269,-1.0301,-1.0343,-1.0355,-1.0354,-1.0295,-1.0272,-1.0258,-1.0235,-1.0222,0,0,-0.9992,-1.0013,-1.0011,-1.0064,-1.0082,-1.0162,-1.0173,-1.0242,-1.0286,-1.0329,-1.033,-1.0291,-1.027,-1.0256,-1.0163,-1.0152,0,0,0,-0.9983,-0.9981,-0.9995,-1.0022,-1.0073,-1.0115,-1.0187,-1.0213,-1.0251,-1.0298,-1.0284,-1.0272,-1.0266,-1.0257,-1.0248,-1.0244,-1.0348,-1.0348,-1.0348,-0.9863,-0.9917,-0.9917,-0.9983,-1.0009,-1.0082,-1.0109,-1.0157,-1.0206,-1.0201,-1.0214,-1.0151,-1.0139,-1.0132,-1.0128,-1.0207,-1.0207,-1.0207,-1.0206,-0.9804,-0.9809,-0.9872,-0.9894,-0.9952,-0.9973,-1.0043,-1.0077,-1.0105,-1.0146,-1.0143,-1.0181,-1.0118,-1.0118,-1.0202,-1.0203,-1.0203,-1.0204,-1.0204,-0.9731,-0.9743,-0.9773,-0.9817,-0.9846,-0.9915,-0.9938,-0.9991,-1.0041,-1.0038,-1.0057,-1.0059,-1.0066,-1.0044,-1.0043,-1.0043,-1.0043,-1.0043,-1.0043,-0.9643,-0.9679,-0.9691,-0.9743,-0.9767,-0.9806,-0.9879,-0.9905,-0.9948,-0.9985,-0.9985,-1.0034,-1.0102,-1.0117,-1.004,-1.004,-1.0041,-1.0041,-1.0041,-0.9562,-0.9588,-0.9606,-0.963,-0.9695,-0.972,-0.9787,-0.9835,-0.9865,-0.9874,-0.9924,-0.9966,-0.9991,-0.9999,-1.0012,-0.9912,-0.9912,-0.9912,-0.9912,-0.95,-0.9517,-0.9547,-0.9582,-0.9622,-0.9684,-0.9704,-0.9761,-0.9824,-0.9846,-0.9868,-0.9891,-0.9896,-0.9919,-0.9928,-0.9941,-0.9825,-0.9825,-0.9825,-0.9453,-0.9477,-0.9482,-0.9542,-0.9597,-0.9643,-0.9664,-0.9702,-0.9781,-0.9823,-0.9864,-0.9868,-0.9905,-0.9914,-0.9956,-0.997,-0.9995,0,0]},{"header":{"parameterUnit":"m.s-1","parameterCategory":1,"la1":30.2992,"la2":30.254,"lo1":-89.0895,"lo2":-89.0443,"dy":0.0025,"dx":0.0025,"nx":19,"ny":19,"refTime":"2026-05-22T21:00:00:Z","depth":0,"parameterNumber":3,"parameterNumberName":"V-component_of_WINDS"},"data":[0,0,0,4.7534,4.7537,4.7677,4.7677,4.7862,4.7864,0,0,0,0,0,0,0,0,0,0,0,4.7498,4.75,4.7534,4.7538,4.7677,4.7677,4.7862,4.7864,0,0,0,0,0,0,0,0,0,0,0,4.7497,4.7499,4.7501,4.7538,4.7677,4.7678,4.7861,4.7753,0,0,0,0,0,0,0,0,0,0,4.7617,4.7589,4.7499,4.7501,4.7539,4.7677,4.7678,4.7748,4.776,4.7802,0,4.7842,0,4.7856,4.7877,4.7877,0,0,0,4.7533,4.7579,4.7612,4.7501,4.754,4.7677,4.7613,4.7755,4.7768,4.7818,4.7844,4.7851,4.7859,4.7878,4.7879,4.8137,4.8139,0,0,4.7526,4.7526,4.7603,4.7621,4.7602,4.7608,4.7617,4.7763,4.7791,4.7845,4.7855,4.7862,4.7879,4.7881,4.8136,4.8138,0,0,0,4.7506,4.752,4.755,4.7614,4.7639,4.7613,4.7623,4.7784,4.7794,4.7857,4.7864,4.788,4.7883,4.8135,4.8137,4.8207,0,0,0,4.7502,4.7509,4.7547,4.7548,4.7636,4.7714,4.7641,4.7784,4.78,4.7863,4.788,4.7884,4.8133,4.8136,4.8202,4.8241,0,0,0,4.7487,4.7507,4.753,4.7548,4.7608,4.7711,4.7729,4.7788,4.7805,4.7877,4.7885,4.8132,4.8135,4.8197,4.8233,4.831,0,0,0,4.7471,4.7589,4.7531,4.7665,4.7607,4.7754,4.7728,4.7838,4.7908,4.7881,4.8133,4.8137,4.8196,4.8228,4.8305,4.8374,4.8404,0,0,4.762,4.7607,4.7686,4.7638,4.7796,4.7733,4.7901,4.7965,4.797,4.8081,4.8087,4.8204,4.8232,4.8308,4.8565,4.8589,0,0,0,4.7733,4.779,4.7832,4.79,4.7952,4.8,4.8038,4.8062,4.8156,4.8028,4.8252,4.8269,4.8313,4.8347,4.8367,4.8405,4.8152,4.8151,4.8151,4.7943,4.7946,4.8077,4.8097,4.8163,4.8202,4.8255,4.8293,4.8275,4.8328,4.8361,4.8517,4.8556,4.8571,4.8611,4.8398,4.8398,4.8398,4.8399,4.8162,4.8243,4.8218,4.8336,4.8338,4.8436,4.8478,4.8462,4.8554,4.8492,4.8531,4.8464,4.8596,4.8631,4.8404,4.8403,4.8402,4.8402,4.8401,4.83,4.834,4.8367,4.8466,4.8542,4.8557,4.8647,4.8644,4.8643,4.8682,4.8717,4.8716,4.8715,4.8699,4.8699,4.87,4.87,4.8701,4.8701,4.8433,4.8462,4.8539,4.8605,4.8649,4.8706,4.8746,4.8788,4.8835,4.8826,4.8826,4.8803,4.8609,4.856,4.8709,4.8708,4.8707,4.8706,4.8705,4.8655,4.8604,4.8723,4.8767,4.8845,4.892,4.8916,4.9003,4.9038,4.9082,4.9051,4.8907,4.8894,4.8878,4.8838,4.905,4.905,4.905,4.905,4.8772,4.8765,4.8886,4.8957,4.9025,4.9034,4.9167,4.92,4.9225,4.9247,4.9215,4.9162,4.9146,4.9141,4.912,4.9083,4.9352,4.9353,4.9353,4.8909,4.8909,4.9023,4.9048,4.9109,4.9161,4.9286,4.9367,4.9385,4.9365,4.9263,4.9251,4.9164,4.9136,4.9113,4.908,4.9011,0,0]}]]